Stations météo

Publicité
Niort, France (7330): Température de l'air & dewpoint: 13.01.2018 06:00:00 - 19.01.2018 06:00:00 (CET)Niort, France (7330): Température de l'air 5cm: 13.01.2018 06:00:00 - 19.01.2018 06:00:00 (CET)Niort, France (7330): Température de l'air -20cm & Température de l'air -100cm: 13.01.2018 06:00:00 - 19.01.2018 06:00:00 (CET)Niort, France (7330): Vitesse du vent & gusts: 13.01.2018 06:00:00 - 19.01.2018 06:00:00 (CET)Niort, France (7330): Direction du vent: 13.01.2018 06:00:00 - 19.01.2018 06:00:00 (CET)Niort, France (7330): reduced air pressure: 13.01.2018 06:00:00 - 19.01.2018 06:00:00 (CET)Niort, France (7330): visibility: 13.01.2018 06:00:00 - 19.01.2018 06:00:00 (CET)Niort, France (7330): Ensoleillement: 13.01.2018 06:00:00 - 19.01.2018 06:00:00 (CET)Niort, France (7330): Quantités de précipitations: 13.01.2018 06:00:00 - 19.01.2018 06:00:00 (CET)
Date & Time tt [°C] td [°C] tt 5cm [°C] tt -20cm [°C] tt -100cm [°C] ff [km/h] ff [knt] fx [km/h] fx [knt] dd ppp [hPa] vv [km] sd [min] rr [mm]
19.01.2018 06:00:00 6,6 4,9 1,5 9,0 9,8 4 2 13 7 WNW 1017,5 17 0 0,0
19.01.2018 05:00:00 7,8 6,1 6,6 9,0 9,8 11 6 26 14 W 1017,6 20 0 0,2
19.01.2018 04:00:00 8,5 7,6 7,9 9,0 9,8 13 7 20 11 W 1017,7 11 0 0,0
19.01.2018 03:00:00 8,6 7,7 7,9 8,9 9,8 14 8 20 11 WSW 1017,5 5 0 0,6
19.01.2018 02:00:00 8,7 7,3 7,5 8,9 9,8 6 4 14 8 WSW 1017,5 8 0 0,0
19.01.2018 01:00:00 8,9 7,5 7,9 8,9 9,8 11 6 22 12 SW 1017,5 9 0 0,0
19.01.2018 00:00:00 9,7 7,8 8,2 8,9 9,8 14 8 28 15 W 1017,4 12 0 0,0
18.01.2018 23:00:00 10,0 8,6 8,7 8,9 9,8 15 8 28 15 W 1016,9 13 0 0,0
18.01.2018 22:00:00 10,1 8,5 9,0 8,9 9,8 16 9 39 21 W 1016,4 16 0 0,0
18.01.2018 21:00:00 10,6 9,7 9,9 8,9 9,8 21 11 41 22 W 1016,0 19 0 0,2
18.01.2018 20:00:00 11,1 10,3 10,6 8,9 9,8 23 12 46 25 W 1015,8 1,7 0 0,4
18.01.2018 19:00:00 11,7 10,9 11,2 8,9 9,8 32 18 54 29 W 1015,5 3,8 0 0,2
18.01.2018 18:00:00 11,8 11,0 11,3 8,9 9,8 37 20 61 33 W 1015,2 7 0 0,0
18.01.2018 17:00:00 11,7 11,1 11,2 8,8 9,8 36 20 60 33 WSW 1015,0 4,1 0 0,2
18.01.2018 16:00:00 11,5 10,9 11,1 8,8 9,8 34 19 53 28 WSW 1015,1 1,8 0 1,0
18.01.2018 15:00:00 11,4 10,8 11,0 8,9 9,8 35 19 56 30 WSW 1015,3 2,2 0 1,0
18.01.2018 14:00:00 11,2 10,6 10,9 8,9 9,8 36 19 58 31 WSW 1015,9 1,7 0 1,0
18.01.2018 13:00:00 11,3 10,2 10,8 8,9 9,8 36 20 63 34 WSW 1016,7 2,4 0 0,0
18.01.2018 12:00:00 11,6 9,3 11,3 8,9 9,8 37 20 56 30 WSW 1017,4 18 0 0,0
18.01.2018 11:00:00 11,4 9,5 10,4 8,9 9,8 34 18 54 29 WSW 1017,6 20 0 0,0
18.01.2018 10:00:00 10,8 9,2 9,8 8,9 9,8 32 17 51 27 SW 1017,8 19 0 0,0
18.01.2018 09:00:00 10,3 9,2 9,4 8,9 9,8 29 15 44 24 SW 1017,9 14 0 0,0
18.01.2018 08:00:00 9,9 8,8 9,2 8,8 9,8 27 14 44 24 SW 1017,8 14 0 0,0
18.01.2018 07:00:00 9,7 8,6 8,9 8,9 9,8 28 15 46 25 WSW 1018,2 5 0 0,0
18.01.2018 06:00:00 9,4 8,3 8,8 8,9 9,8 27 14 50 27 SW 1018,5 8 0 0,0
18.01.2018 05:00:00 9,3 7,7 8,2 8,9 9,8 26 14 43 23 WSW 1019,1 14 0 0,2
18.01.2018 04:00:00 9,2 7,3 8,0 8,9 9,8 27 15 47 25 WSW 1019,7 9 0 0,0
18.01.2018 03:00:00 8,6 7,7 7,9 8,9 9,8 25 13 42 23 WSW 1020,2 4,2 0 0,2
18.01.2018 02:00:00 8,3 6,4 7,1 8,9 9,8 17 9 31 17 SW 1020,6 14 0 0,0
18.01.2018 01:00:00 7,8 6,1 6,7 8,9 9,8 16 9 26 14 SSW 1021,7 12 0 0,0
18.01.2018 00:00:00 7,2 5,8 6,1 8,9 9,8 16 8 30 16 SSW 1022,2 12 0 0,0
17.01.2018 23:00:00 7,7 6,0 5,7 8,9 9,8 24 13 37 20 SW 1022,6 15 0 0,0
17.01.2018 22:00:00 7,0 5,3 6,1 8,9 9,8 12 7 27 15 SW 1023,0 20 0 0,0
17.01.2018 21:00:00 7,4 5,0 5,4 8,9 9,8 16 9 27 15 SW 1022,9 20 0 0,0
17.01.2018 20:00:00 7,2 4,5 5,6 8,9 9,8 15 8 21 11 WSW 1023,2 20 0 0,0
17.01.2018 19:00:00 6,9 4,0 5,2 8,9 9,8 13 7 19 10 WSW 1023,5 19 0 0,0
17.01.2018 18:00:00 7,7 3,7 6,5 8,9 9,8 13 7 32 18 WSW 1023,4 20 6 0,0
17.01.2018 17:00:00 9,0 3,6 8,4 8,9 9,8 18 10 46 25 W 1023,7 20 41 0,0
17.01.2018 16:00:00 10,6 3,4 9,9 8,9 9,8 28 15 45 24 W 1022,9 20 19 0,0
17.01.2018 15:00:00 10,0 2,3 10,1 8,9 9,8 24 13 42 23 W 1022,7 20 35 0,0
17.01.2018 14:00:00 10,0 3,3 10,2 8,9 9,8 24 13 41 22 W 1023,1 20 32 0,0
17.01.2018 13:00:00 9,5 3,9 11,0 8,9 9,8 24 13 39 21 W 1023,2 19 49 0,0
17.01.2018 12:00:00 9,1 3,3 8,9 8,9 9,8 22 12 36 19 W 1023,3 19 57 0,0
17.01.2018 11:00:00 8,0 3,1 6,8 8,9 9,8 22 12 33 18 W 1022,5 19 31 0,0
17.01.2018 10:00:00 6,7 2,6 4,9 8,9 9,8 18 10 30 16 W 1021,3 20 30 0,0
17.01.2018 09:00:00 5,9 2,0 4,4 8,9 9,8 22 12 35 19 W 1020,3 20 0 0,0
17.01.2018 08:00:00 6,1 2,0 4,6 8,8 9,8 14 8 38 21 W 1019,0 20 0 0,0
17.01.2018 07:00:00 6,5 2,2 5,2 8,9 9,8 24 13 40 22 W 1017,9 20 0 0,0
17.01.2018 06:00:00 6,5 2,8 5,2 8,9 9,8 19 10 34 19 W 1017,1 19 0 0,0
17.01.2018 05:00:00 6,8 3,0 5,2 8,8 9,8 23 12 42 23 W 1016,5 20 0 0,0
17.01.2018 04:00:00 6,5 3,3 5,0 8,8 9,8 27 15 62 34 W 1016,1 20 0 0,0
17.01.2018 03:00:00 7,1 3,9 5,8 8,8 9,8 39 21 67 36 W 1015,1 14 0 0,0
17.01.2018 02:00:00 7,6 4,5 6,1 8,7 9,8 25 13 54 29 W 1014,2 20 0 0,0
17.01.2018 01:00:00 7,9 5,2 6,6 8,8 9,8 22 12 67 36 WNW 1013,4 8 0 0,4
17.01.2018 00:00:00 8,5 5,6 7,1 8,7 9,8 30 16 69 38 WNW 1012,6 10 0 0,4
16.01.2018 23:00:00 10,0 5,2 7,9 8,7 9,8 34 18 61 33 W 1012,2 18 0 0,0
16.01.2018 22:00:00 9,9 7,7 8,5 8,7 9,8 29 16 51 27 WSW 1011,9 10 0 0,0
16.01.2018 21:00:00 9,4 7,5 8,5 8,7 9,8 24 13 46 25 WSW 1011,9 8 0 0,0
16.01.2018 20:00:00 10,7 6,6 9,2 8,7 9,9 36 19 58 31 W 1011,7 14 0 0,0
16.01.2018 19:00:00 10,3 7,4 9,0 8,6 9,8 25 14 52 28 W 1011,5 15 0 0,0
16.01.2018 18:00:00 9,9 8,2 9,1 8,6 9,8 35 19 67 36 W 1011,6 6 5 1,2
16.01.2018 17:00:00 11,8 8,3 11,4 8,6 9,8 39 21 68 37 W 1011,8 17 23 0,0
16.01.2018 16:00:00 12,0 9,2 11,0 8,6 9,9 38 21 59 32 W 1011,5 20 23 0,0
16.01.2018 15:00:00 11,4 9,5 10,9 8,6 9,8 34 18 55 30 W 1012,4 5 9 0,0
16.01.2018 14:00:00 12,3 9,5 11,9 8,6 9,9 30 16 51 27 W 1012,8 20 27 0,0
16.01.2018 13:00:00 11,3 10,4 10,8 8,6 9,9 21 11 61 33 W 1013,6 11 0 0,2
16.01.2018 12:00:00 12,0 10,6 10,9 8,6 9,8 43 23 63 34 WSW 1013,7 5 0 0,2
16.01.2018 11:00:00 11,7 10,3 - - - 35 19 59 32 WSW 1013,8 11 - 0,0
16.01.2018 10:00:00 11,4 9,8 10,1 8,6 9,9 31 17 50 27 WSW 1013,7 12 0 0,0
16.01.2018 09:00:00 10,6 9,5 9,7 8,5 9,9 28 15 43 23 WSW 1013,2 6 0 0,0
16.01.2018 08:00:00 10,3 9,1 9,7 8,5 9,9 24 13 60 32 WSW 1012,8 17 0 0,2
16.01.2018 07:00:00 11,0 9,1 9,7 8,5 9,9 32 17 65 35 W 1012,0 8 0 0,0
16.01.2018 06:00:00 11,0 8,2 9,8 8,5 9,9 29 15 50 27 WSW 1011,3 8 0 0,0
16.01.2018 05:00:00 10,8 8,7 9,8 8,5 9,9 30 16 54 29 W 1011,7 17 0 0,0
16.01.2018 04:00:00 10,8 9,6 10,1 8,5 9,9 33 18 58 31 W 1011,7 4,1 0 0,8
16.01.2018 03:00:00 11,1 9,5 10,2 8,5 9,9 28 15 44 24 WSW 1011,4 18 0 0,0
16.01.2018 02:00:00 10,9 9,3 10,2 8,5 9,9 25 13 42 23 WSW 1011,6 16 0 0,0
16.01.2018 01:00:00 10,9 9,3 10,0 8,5 9,9 28 15 47 25 W 1012,4 18 0 0,2
16.01.2018 00:00:00 10,8 9,4 9,7 8,5 9,9 24 13 40 21 WSW 1012,5 20 0 0,0
15.01.2018 23:00:00 10,5 9,3 9,5 8,5 9,9 29 16 45 25 WSW 1012,2 20 0 0,0
15.01.2018 22:00:00 10,8 9,6 10,1 8,5 9,9 30 16 53 28 WSW 1012,3 9 0 0,0
15.01.2018 21:00:00 11,1 10,0 10,2 8,5 9,9 28 15 54 29 WSW 1011,7 17 0 0,0
15.01.2018 20:00:00 11,7 10,8 11,0 8,5 9,9 35 19 50 27 W 1011,6 15 0 0,4
15.01.2018 19:00:00 11,4 10,9 10,3 8,5 9,9 32 17 53 29 WSW 1010,8 4,7 0 1,7
15.01.2018 18:00:00 10,6 10,0 9,8 8,5 9,9 33 18 62 34 SW 1010,7 2,5 0 1,0
15.01.2018 17:00:00 10,1 9,5 9,3 8,5 9,9 44 24 66 35 SW 1011,1 1,9 0 1,2
15.01.2018 16:00:00 9,6 8,8 9,0 8,5 9,9 37 20 63 34 SW 1011,9 2,5 0 1,6
15.01.2018 15:00:00 9,5 8,4 8,9 8,6 10,0 40 22 64 35 SW 1013,0 2,6 0 1,2
15.01.2018 14:00:00 10,1 7,3 8,8 8,6 10,0 30 16 57 31 SW 1014,5 13 0 0,2
15.01.2018 13:00:00 10,1 8,2 8,9 8,6 9,9 27 15 41 22 SSW 1015,6 19 0 0,0
15.01.2018 12:00:00 8,5 6,8 7,3 8,6 9,9 26 14 41 22 SSW 1017,5 20 0 0,0
15.01.2018 11:00:00 6,9 6,2 5,9 8,6 10,0 22 12 31 17 S 1018,0 13 0 0,0
15.01.2018 10:00:00 5,8 5,4 4,7 8,6 9,9 19 11 29 16 S 1018,8 7 0 0,0
15.01.2018 09:00:00 4,7 4,3 4,2 8,6 9,9 10 5 20 11 S 1019,6 8 0 0,0
15.01.2018 08:00:00 4,3 3,7 3,9 8,6 10,0 14 7 21 11 S 1019,8 7 0 0,0
15.01.2018 07:00:00 4,3 3,7 3,0 8,6 10,0 6 4 18 10 S 1019,9 6 0 0,0
15.01.2018 06:00:00 3,3 2,6 0,6 8,6 10,0 8 4 10 5 SSE 1019,5 12 0 0,0
15.01.2018 05:00:00 3,1 2,1 1,3 8,6 10,0 5 3 13 7 S 1020,4 15 0 0,0
15.01.2018 04:00:00 3,7 2,4 2,4 8,6 10,0 10 6 16 9 SE 1020,6 18 0 0,0
15.01.2018 03:00:00 3,9 3,2 -0,6 8,6 10,0 7 4 11 6 SE 1021,1 16 0 0,0
15.01.2018 02:00:00 2,7 1,7 -1,6 8,6 10,0 3 2 5 3 SSE 1021,7 7 0 0,0
15.01.2018 01:00:00 3,2 1,6 -0,5 8,6 10,0 0 0 13 7 N 1021,6 5 0 0,0
15.01.2018 00:00:00 4,9 3,6 2,3 8,6 10,0 11 6 16 9 SE 1021,2 20 0 0,0
14.01.2018 23:00:00 6,3 4,5 4,9 8,6 10,0 7 4 11 6 SE 1021,2 20 0 0,0
14.01.2018 22:00:00 7,5 5,1 6,7 8,6 10,0 8 4 11 6 SE 1020,7 20 0 0,0
14.01.2018 21:00:00 7,9 5,0 6,6 8,6 10,0 6 4 10 5 ESE 1020,3 20 0 0,0
14.01.2018 20:00:00 7,4 5,0 6,4 8,6 10,0 6 3 9 5 ENE 1020,0 20 0 0,0
14.01.2018 19:00:00 7,5 5,1 5,5 8,6 10,0 8 4 13 7 E 1019,2 20 0 0,0
14.01.2018 18:00:00 7,6 4,5 5,8 8,6 10,0 9 5 12 6 E 1018,3 20 1 0,0
14.01.2018 17:00:00 8,7 5,1 7,8 8,6 10,0 6 4 13 7 ESE 1017,6 20 1 0,0
14.01.2018 16:00:00 9,6 5,4 10,0 8,6 10,0 10 5 14 7 ESE 1017,3 20 33 0,0
14.01.2018 15:00:00 9,6 5,4 10,4 8,6 10,0 7 4 14 8 ESE 1016,8 20 10 0,0
14.01.2018 14:00:00 9,2 5,0 10,2 8,7 10,0 11 6 20 11 SE 1016,5 20 1 0,0
14.01.2018 13:00:00 8,6 5,2 9,1 8,7 10,1 15 8 24 13 SSE 1016,6 20 3 0,0
14.01.2018 12:00:00 7,9 5,2 6,7 8,7 10,0 14 8 22 12 SE 1016,9 20 0 0,0
14.01.2018 11:00:00 7,0 4,5 4,9 8,7 10,0 13 7 22 12 SE 1016,7 20 16 0,0
14.01.2018 10:00:00 4,8 3,5 2,6 8,7 10,1 11 6 19 10 ESE 1016,3 20 2 0,0
14.01.2018 09:00:00 4,2 2,9 2,0 8,7 10,1 12 7 17 9 SE 1015,6 20 0 0,0
14.01.2018 08:00:00 5,0 3,7 2,7 8,7 10,1 8 4 15 8 ESE 1014,7 20 0 0,0
14.01.2018 07:00:00 5,5 4,5 4,5 8,7 10,1 10 6 20 11 SSE 1014,1 20 0 0,0
14.01.2018 06:00:00 6,1 5,4 5,4 8,7 10,1 15 8 20 11 SSE 1013,8 12 0 0,0
14.01.2018 05:00:00 6,4 5,7 5,8 8,8 10,1 14 8 26 14 SSE 1014,0 7 0 0,0
14.01.2018 04:00:00 6,7 5,5 5,7 8,8 10,1 14 8 20 11 SSE 1014,1 18 0 0,0
14.01.2018 03:00:00 6,5 5,6 5,5 8,8 10,1 9 5 16 9 SSE 1013,7 20 0 0,0
14.01.2018 02:00:00 6,6 5,7 5,6 8,7 10,0 12 6 22 12 S 1013,9 13 0 0,4
14.01.2018 01:00:00 6,2 4,2 5,3 8,8 10,1 11 6 20 11 SSE 1014,4 20 0 0,0
14.01.2018 00:00:00 5,7 3,5 5,1 8,8 10,1 10 5 16 9 SE 1014,4 20 0 0,0
13.01.2018 23:00:00 5,7 3,2 4,7 8,8 10,1 11 6 17 9 SE 1014,1 20 0 0,0
13.01.2018 22:00:00 5,8 2,8 4,8 8,8 10,1 13 7 19 10 ESE 1014,1 20 0 0,0
13.01.2018 21:00:00 6,1 3,1 5,0 8,8 10,1 9 5 15 8 ESE 1014,2 20 0 0,0
13.01.2018 20:00:00 6,0 2,8 5,2 8,9 10,1 9 5 19 10 ESE 1014,0 20 0 0,0
13.01.2018 19:00:00 6,2 2,6 5,1 8,9 10,1 14 8 21 11 E 1013,9 20 0 0,0
13.01.2018 18:00:00 6,1 3,1 5,2 8,9 10,1 9 5 18 10 E 1014,4 20 0 0,0
13.01.2018 17:00:00 6,7 3,1 6,0 8,9 10,1 12 7 19 10 E 1014,5 20 0 0,0
13.01.2018 16:00:00 6,7 3,1 6,4 8,9 10,1 9 5 16 9 E 1014,8 20 0 0,0
13.01.2018 15:00:00 6,7 3,1 6,7 8,9 10,1 9 5 18 10 E 1014,7 20 0 0,0
13.01.2018 14:00:00 7,0 2,9 7,1 9,0 10,1 10 6 17 9 E 1015,2 20 0 0,0
13.01.2018 13:00:00 7,4 2,5 7,9 9,0 10,1 11 6 23 13 SE 1016,2 20 1 0,0
13.01.2018 12:00:00 7,0 2,9 7,1 9,0 10,1 11 6 21 11 E 1017,1 20 39 0,0
13.01.2018 11:00:00 5,2 2,2 3,4 9,0 10,1 9 5 24 13 E 1017,6 20 8 0,0
13.01.2018 10:00:00 3,6 1,5 2,1 9,0 10,1 15 8 22 12 E 1017,7 20 0 0,0
13.01.2018 09:00:00 2,7 1,4 1,2 9,0 10,1 14 7 19 11 E 1017,9 19 0 0,0
13.01.2018 08:00:00 1,8 0,5 0,9 9,1 10,1 10 6 19 10 E 1018,2 10 0 0,0
13.01.2018 07:00:00 2,1 1,2 0,7 9,1 10,1 13 7 20 11 E 1018,4 12 0 0,0
13.01.2018 06:00:00 2,6 1,6 0,2 9,1 10,1 10 5 23 13 ESE 1018,9 12 0 0,0

tt = Température de l'air
td = dewpoint
tt 5cm = Température de l'air 5cm
tt -20cm = Température de l'air -20cm
tt -100cm = Température de l'air -100cm
ff = Vitesse du vent
fx = gusts
dd = Direction du vent
ppp = reduced air pressure
vv = visibility
sd = Ensoleillement
rr = Quantités de précipitations

stations d'obs. à proximité